ECHOSTAR 23 (42070 NORAD) Tracking and Keplerian Element Data

This shows tracking and keplerian element data for the satellite.

Feedback or suggestion? Click here.




ElementValue
Catalog42070
NameECHOSTAR 23
Epoch Orbit1653
Epoch Day258.8400289
Epoch Year2021
RAAN147.2059
Inclination0.0264
Eccentricity0.0002116
Argument of Perigee37.4675
Mean Anonmoly44.8459
Mean Motion1.00267868
Decay Rate-2.91E-06
L11 42070U 17014A 21258.84002890 -.00000291 00000-0 00000-0 0 9998
L22 42070 0.0264 147.2059 0002116 37.4675 44.8459 1.00267868 16534

Live tracking and technical data element details for ECHOSTAR 23 (NORAD 42070). ECHOSTAR 23 can be tracked NOW for your location showing map with azimuth and elevation plus other details from your city location.

Track the satellite on the map from your city or location and see movement details for azimuth, elevation, latitude, longitude, range, height, and movement on the map or in text.







IsCatalogInMostPopularTable: catalog: 42070, numindb: 670
Update: records affected: 1



GetName: 42070 ECHOSTAR 23

Hit Count: updated at: Sat, 18 Sep 2021 11:12:33 GMT